www.pogodaiklimat.ru

Погода и климат >> Архив погоды >> Беларусь >> Минск


АРХИВ ПОГОДЫ в Минске

Время (UTC), дата Ветер
(напр.,м/с)
 
Видим.   Явления Облачность Т
(С)
Тd
(С)
f
(%)
Тe
(С)
Тes
(С)
Комфортность P
(гПа)
Po
(гПа)
Тmin
(С)
Tmax
(С)
R
(мм)
R24
(мм)
S
(см)
06 9.01 Ю 3 10 км слаб. снег 10/10 300 м
[Frnb]
-9.6 -11.4 87 -16 -16 холодно 1010.5 980.8 -10.3 0.0 25
09 9.01 ЮВ 3 5000 м слаб. снег 10/10 270 м
[Frnb]
-10.3 -12.6 83 -16 -16 очень
холодно
1011.9 982.1
12 9.01 ЮВ 3 10 км слаб. снег 10/10 270 м
[Frnb]
-10.7 -12.6 86 -17 -17 очень
холодно
1012.7 982.9
15 9.01 В 2 11 км слаб. снег 10/10 240 м
[Frnb]
-11.3 -12.9 88 -16 -16 очень
холодно
1014.1 984.1
18 9.01 СВ 1 10 км {снег} ясно -14.9 -16.4 88 -17 -17 очень
холодно
1015.6 985.2 -9.6 0.0
21 9.01 СВ 1 10 км 10/10 1050 м
[Sc]
-13.4 -15.2 86 -16 -16 холодно 1016.1 985.8
00 10.01 В 1 10 км слаб. снег 10/10 600 м
[Sc]
-11.8 -13.5 87 -14 -14 прохладно 1016.5 986.4
03 10.01 СВ 1 4500 м слаб. снег 10/10 930 м
[Sc]
-11.4 -13.1 87 -14 -14 прохладно 1017.0 986.9
06 10.01 СВ 1 10 км {снег} 8/5 1380 м
[Sc Ac trans]
-12.1 -13.7 88 -14 -14 прохладно 1018.3 988.1 -15.4 0.6 25
09 10.01 СВ 1 10 км ясно -11.8 -13.5 87 -14 -13 прохладно 1019.8 989.6
12 10.01 СВ 1 16 км 6/0
[Ci fib]
-9.7 -12.3 81 -12 -11 прохладно 1019.9 990.0
15 10.01 штиль 0 10 км ясно -14.7 -16.1 89 -15 -15 холодно 1021.0 990.4
18 10.01 СВ 1 11 км ясно -18.8 -20.7 85 -22 -22 очень
холодно
1022.6 991.5 -9.6
21 10.01 СВ 1 13 км 3/0
[Ci fib]
-20.4 -22.5 83 -23 -23 очень
холодно
1023.1 991.8
00 11.01 штиль 0 10 км 9/9 630 м
[Sc]
-19.7 -21.8 83 -20 -20 очень
холодно
1022.4 991.2
03 11.01 штиль 0 6000 м дымка 8/0
[Ac trans Ci fib]
-20.4 -22.7 82 -20 -20 очень
холодно
1021.6 990.3
06 11.01 СЗ 1 10 км дымка 8/8 630 м
[Sc]
-17.7 -19.7 84 -21 -21 очень
холодно
1020.1 989.2 -22.1 24
09 11.01 ЮЗ 2 6000 м дымка {снег} 8/0
[Ac trans Ci fib]
-13.8 -15.8 85 -19 -18 очень
холодно
1017.5 987.2
12 11.01 ЮЗ 3 5000 м дымка {снег} 8/0
[Ac trans]
-12.3 -14.4 84 -18 -18 очень
холодно
1014.8 984.7
15 11.01 ЮЗ 4 3900 м слаб. снег 10/8 600 м
[Sc Ac trans]
-12.1 -14.0 86 -19 -19 очень
холодно
1011.7 981.7
18 11.01 ЮЗ 3 3900 м слаб. снег 10/10 600 м
[Sc]
-11.9 -13.7 86 -18 -18 очень
холодно
1012.0 978.6 -11.7 0.3
21 11.01 ЮЗ 4 3800 м слаб. снег 10/10 600 м
[Sc]
-10.5 -12.2 87 -18 -18 очень
холодно
1004.5 974.9
00 12.01 ЮЗ 3 2100 м слаб. снег 10/10 300 м
[Frnb]
-9.2 -10.5 90 -15 -15 холодно 1001.9 972.5
03 12.01 З 2 5000 м слаб. снег 10/10 600 м
[Sc]
-8.8 -10.6 87 -13 -13 прохладно 1000.5 971.2
06 12.01 З 1 5000 м дымка {снег} 10/10 270 м
[Sc]
-7.8 -8.9 92 -10 -10 по сезону 1000.8 971.6 -12.0 4 28
09 12.01 З 2 4300 м дымка 10/10 150 м
[St]
-5.4 -6.4 93 -10 -10 по сезону 1001.2 972.3
12 12.01 З 2 4100 м слаб. снег 10/10 180 м
[Sc]
-2.8 -3.8 93 -7 -7 по сезону 1000.9 972.3
15 12.01 З 2 17 км {снег} 10/10 630 м
[Sc]
-1.4 -2.4 93 -5 -5 по сезону 1000.6 972.1
18 12.01 З 2 21 км {снег} 8/8 930 м
[Sc]
-1.1 -2.2 92 -5 -5 по сезону 1000.3 971.9 -1.1 0.0
21 12.01 З 2 4200 м слаб. ливневой снег 10/10 600 м
[Cb calv]
-0.8 -1.6 94 -5 -5 по сезону 999.6 971.2
00 13.01 З 2 10 км слаб. ливневой снег 10/10 270 м
[Cb calv]
-0.7 -1.8 92 -5 -5 по сезону 998.8 970.5
03 13.01 З 2 12 км {ливн. осадки} 10/10 300 м
[Sc]
-1.4 -3.1 88 -5 -5 по сезону 998.7 970.3
06 13.01 ЮЗ 2 20 км {ливн. осадки} 10/10 270 м
[Sc]
-2.2 -3.8 89 -6 -6 по сезону 998.2 969.7 -2.2 3 30
09 13.01 Ю 3 5000 м слаб. снег 10/10 180 м
[Sc]
-2.2 -3.0 94 -7 -7 по сезону 996.9 968.5
12 13.01 Ю 3 10 км {снег} 10/10 180 м
[Sc]
-1.3 -2.0 95 -6 -6 по сезону 993.9 965.6
15 13.01 ЮЗ 5 4200 м дымка {снег} 10/10 180 м
[Sc]
+0.2 -0.2 97 -6 -6 по сезону 991.5 963.5
18 13.01 Ю 4 4500 м в посл. час зёрна {морось} 10/10 150 м
[St]
+0.4 0.0 97 -5 -5 по сезону 988.9 961.0 +0.5 0.4
21 13.01 Ю 5
{10}
2800 м слаб. морось 10/10 150 м
[St]
+0.3 0.0 98 -6 -6 по сезону 986.4 958.5
00 14.01 Ю 6 4200 м слаб. снег {морось} 10/10 180 м
[Sc]
+0.4 -0.2 96 -6 -6 по сезону 983.2 955.4
03 14.01 Ю 5
{10}
3600 м слаб. снег 10/10 180 м
[Frnb]
+0.2 -0.4 96 -6 -6 по сезону 980.6 952.9
06 14.01 Ю 5 9000 м слаб. снег {морось} 10/10 210 м
[Frnb Ns]
+0.1 -0.6 95 -6 -6 по сезону 979.0 951.3 +0.1 2 28
09 14.01 Ю 5 20 км в посл. час снег 10/10 210 м
[Sc]
0.0 -0.8 94 -6 -6 по сезону 978.3 950.6
12 14.01 ЮЗ 4 7000 м слаб. ливневой снег 10/10 210 м
[Cb calv]
+0.6 0.0 96 -5 -5 по сезону 976.9 949.3
15 14.01 З 2 10 км в посл. час ливневой снег 10/10 420 м
[Sc]
+0.6 0.0 96 -3 -3 по сезону 978.4 950.8
18 14.01 З 2 7000 м слаб. снег 10/10 240 м
[Sc]
-0.3 -1.1 94 -4 -4 по сезону 981.1 953.3 +0.8 3
21 14.01 СЗ 3 9000 м слаб. снег 10/10 210 м
[Sc]
-1.9 -3.2 91 -7 -7 по сезону 984.7 956.6
00 15.01 З 3 30 км {ливн. осадки, снег} 8/8 600 м
[Sc]
-3.1 -5.1 86 -8 -8 по сезону 987.7 959.4
03 15.01 З 3 30 км 10/10 600 м
[Sc]
-3.4 -4.8 90 -9 -9 по сезону 989.2 960.8
06 15.01 ЮЗ 3 25 км {снег} 8/8 660 м
[Sc]
-3.5 -5.3 87 -9 -9 по сезону 989.8 961.4 -3.7 1 30
09 15.01 З 2 22 км {снег} 10/10 420 м
[Sc]
-3.4 -5.9 83 -7 -7 по сезону 991.7 963.3
12 15.01 ЮЗ 2 22 км {снег} 10/10 1080 м
[Sc]
-3.1 -5.1 86 -7 -7 по сезону 991.4 963.0
15 15.01 З 2 65 км слаб. снег 10/10 1080 м
[Sc]
-3.5 -5.3 87 -8 -8 по сезону 993.1 964.6
18 15.01 З 1 65 км {снег} 10/10 1080 м
[Sc]
-4.4 -6.2 87 -7 -7 по сезону 994.1 965.5 -3.0 0.3
21 15.01 З 1 8000 м {снег} 10/10 1080 м
[Sc]
-3.7 -5.0 91 -6 -6 по сезону 994.5 966.0
00 16.01 З 1 5000 м слаб. снег 10/10 210 м
[Sc]
-3.8 -5.2 90 -6 -6 по сезону 994.3 965.8
03 16.01 З 1 5000 м слаб. снег 10/10 210 м
[Sc]
-3.4 -4.4 93 -6 -6 по сезону 995.1 966.6

 

Местоположение метеостанции Минск (город Минск, Беларусь): широта 53.96 долгота 27.70 высота над уровнем моря 231 м.

В архиве по умолчанию представлена погода в Минске за последнюю неделю. Архивные данные за месяц целиком и за предыдущие месяцы, начиная с января 2011 года, Вы можете получить, выбрав интересующий диапазон дат из раскрывающегося списка и нажав кнопку "Ввод!".


*Определитесь, кто Вы:
робот инопланетянин человек

Внимание! Время в таблицах - всемирное. Для получения местного времени необходимо прибавить поправку, которая равна 3 ч.

Смотрите также архив погоды в соседних городах и на ближайших метеорологических станциях:

Погода в Борисове (Минская область, Беларусь) (63 км)
Погода в Марьиной Горке (Минская область, Беларусь) (63 км)
Погода в Вилейке (Минская область, Беларусь) (77 км)
Погода в Воложине (Минская область, Беларусь) (78 км)
Погода в Столбцах (Минская область, Беларусь) (83 км)
Погода в Березино (Минская область, Беларусь) (86 км)
Погода в Березинском Заповеднике (Минская область, Беларусь) (95 км)
Погода в Докшицах (Витебская область, Беларусь) (102 км)
Погода в Слуцке (Минская область, Беларусь) (104 км)
Погода в Кличеве (Могилевская область, Беларусь) (118 км)

Пояснения к столбцам:

Ветер - указаны скорость ветра в м/с - средняя за 10 мин, порывы в срок и между сроками (в фигурных скобках) и направление, откуда дует ветер: С - северный, СВ - северо-восточный, В - восточный, ЮВ - юго-восточный, Ю - южный, ЮЗ - юго-западный, З - западный, СЗ - северо-западный.
Видимость - горизонтальная дальность видимости в метрах или километрах. При видимости от 1 до 10 км при отсутствии осадков обычно наблюдается дымка, при ухудшении видимости до 1 км и менее - туман. В сухую погоду видимость может ухудшаться дымом, пылью или мглою.
Явления - указаны атмосферные явления, наблюдавшиеся в срок или в последний час перед сроком; фигурными скобками обозначены явления, наблюдавшиеся между сроками (за 1-3 часа до срока); квадратными скобками обозначены град или гололедные отложения с указанием их диаметра в мм.
Облачность - указаны через наклонную черту общая и нижняя облачность в баллах и высота нижней границы облаков в метрах; квадратными скобками обозначены формы облаков: Ci - перистые, Cs - перисто-слоистые, Cc - перисто-кучевые, Ac - высококучевые, As - высокослоистые, Sc - слоисто-кучевые, Ns - слоисто-дождевые, Cu - кучевые, Cb - кучево-дождевые. Подробнее классификацию облаков см. в Атласе облаков (PDF).
T - Температура воздуха - температура, измеренная на высоте 2 м над землей.
Td - Температура точки росы - температура, при понижении до которой содержащийся в воздухе водяной пар достигнет насыщения.
f - Относительная влажность воздуха - влажноcть воздуха, измеренная на высоте 2 м над землей.
Te - Эффективная температура - температура, которую ощущает одетый по сезону человек в тени. Характеристика душности погоды. При расчете учитывается влияние влажности воздуха и скорости ветра на теплоощущения человека.
Tes - Эффективная температура на солнце - температура, которую ощущает человек, с поправкой на солнечный нагрев. Характеристика знойности погоды. Зависит от высоты солнца над горизонтом, облачности и скорости ветра. Ночью, в пасмурную погоду, а также при ветре 12 м/с и более поправка равна нулю.
P - Атмосферное давление - приведенное к уровню моря атмосферное давление.
Po - Атмосферное давление - измеренное на уровне метеостанции атмосферное давление.
Tmin - Минимальная температура - минимум температуры воздуха на высоте 2 м над землей.
Tmax - Максимальная температура - максимум температуры воздуха на высоте 2 м над землей.
R - Количество осадков - Количество выпавших осадков за период времени, мм. При наведении курсора мыши на число - период времени, за который выпало указанное количество осадков.
R24 - Количество осадков - Количество выпавших осадков за 24 часа, мм.
S - Снежный покров - Высота снежного покрова, см. При наведении курсора мыши на число - состояние снежного покрова и степень покрытия местности в баллах.